Location: El Chorro
(10.0985°N, 67.3542°W)
Time: 18:50:08
(UTC+00:00)

Cosmos 2369 Rocket - Pass Details

Date: 15 November 2025
Orbit: 826 x 852 km, 71.0° (Epoch: 06 December)

Event Time Altitude Azimuth Distance (km) Brightness Sun altitude
Rises 23:26:51 0° 198° (SSW) 3,354 5.8 -20.3°
Reaches altitude 10° 23:29:17 10° 199° (SSW) 2,421 5.0 -20.9°
Maximum altitude 23:34:49 80° 286° (WNW) 841 2.2 -22.2°
Enters shadow 23:38:10 25° 10° (N) 1,614 3.4 -23.0°
